Regional Weather Roundup
Issued by NWS Midland/Odessa, TX

Skip options and go directly to product.
Home | Oldest Version | Previous Version | Current Version | All | Text Only | Save Text | Print | Product List | Glossary Off

Skip product version selection by date and time.   

279
ASUS44 KMAF 291410
RWRMAF
MIDLAND AREA WEATHER ROUNDUP
NATIONAL WEATHER SERVICE MIDLAND TX
900 AM CDT TUE JUL 29 2014

...IN SOUTHWEST TEXAS AND SOUTHEAST NEW MEXICO...

CITY           SKY/WX    TMP DP  RH WIND       PRES   REMARKS
ALPINE         SUNNY     74  55  51 W5        30.31S
ANDREWS        FAIR      74  62  66 E10       30.22S
ARTESIA        CLOUDY    75  63  64 NE7       30.24R
BIG SPRING     SUNNY     79  64  60 E10       30.21S
CARLSBAD       PTSUNNY   78  62  57 NE6       30.20R
DRYDEN           N/A     83  66  56 SE9       30.13R
FORT STOCKTON  SUNNY     78  59  51 SE5       30.18R
GUAD PASS      PTSUNNY   71  55  56 NE5       30.33S
HOBBS          PTSUNNY   72  61  68 NE13      30.26R
MARFA          SUNNY     70  57  64 NE6       30.31R
MIDLAND AIRPK  SUNNY     76  65  67 E8        30.21S
MIDLAND INTL   SUNNY     77  65  66 E10       30.19S
ODESSA         SUNNY     77  63  61 SE10      30.20S
PECOS          SUNNY     79  58  48 E12       30.13S
PRESIDIO       FAIR      84  55  36 NE6       30.14R
SEMINOLE       SUNNY     70  60  69 NE9       30.26S
SNYDER         SUNNY     71  61  69 E8        30.22R
WINK           MOSUNNY   80  62  54 E13       30.15R
$$
...OTHER STATIONS IN TEXAS...

CITY           SKY/WX    TMP DP  RH WIND       PRES   REMARKS
ABILENE        SUNNY     76  60  57 E9        30.19R
AMARILLO       CLOUDY    68  60  75 S12       30.28R
AUSTIN         MOSUNNY   81  72  74 CALM      30.11R
BROWNSVILLE    SUNNY     83  78  85 SE6       30.09R
CORPUS CHRISTI MOSUNNY   81  76  84 S7        30.09R
DALLAS FTW     CLOUDY    79  61  53 NE6       30.15R
DEL RIO        SUNNY     81  68  64 E9        30.09R
EL PASO        TSTM      68  65  90 NE20      30.22R
HOUSTON INT    PTSUNNY   84  75  74 W7        30.08S
LUBBOCK        CLOUDY    66  63  90 S3        30.27R
SAN ANGELO     SUNNY     77  67  71 E6        30.16R
SAN ANTONIO    MOSUNNY   81  71  71 VRB3      30.11S
WACO           SUNNY     78  66  66 NE8       30.13R
WICHITA FALLS  NOT AVBL
$$
...OTHER LOCATIONS IN NEW MEXICO...

CITY           SKY/WX    TMP DP  RH WIND       PRES   REMARKS
ALAMAGORDO     CLOUDY    70  64  83 MISG      30.25S
ALBUQUERQUE    MOSUNNY   68  61  78 CALM      30.33R
CANNON AFB     HVY RAIN  66  66 100 SE6       30.32S FOG
CLOVIS         CLOUDY    64  63  94 S5        30.34
HOLLOMAN AFB   PTSUNNY   68  68 100 NE8       30.23S
ROSWELL        RAIN      68  66  93 NW8       30.26R FOG
RUIDOSO        LGT RAIN  57  57 100 CALM      30.46R
SANTA FE       PTSUNNY   62  58  86 SE6       30.38R
TRUTH OR CONSE MOSUNNY   71  60  68 N9        30.28R
TUCUMCARI      RAIN      68  65  90 SW7       30.27S FOG
$$

USA.gov is the U.S. government's official web portal to all federal, state and local government web resources and services.